Location: ????
(30.2663°N, 31.2484°E)
Time: 02:25:57
(UTC+00:00)

USA 234 - Pass Details

Date: 27 September 2022
Orbit: 1099 x 1109 km, 123.0° (Epoch: 24 November)

Event Time Altitude Azimuth Distance (km) Brightness Sun altitude
Rises 02:29:02 0° 32° (NNE) 3,916 6.8 -17.4°
Reaches altitude 10° 02:31:42 10° 24° (NNE) 2,958 5.9 -16.8°
Maximum altitude 02:37:33 37° 321° (NW) 1,649 3.9 -15.6°
Enters shadow 02:41:21 20° 268° (W) 2,296 4.3 -14.8°
